자동차매매
번호     글 제 목  작성자 작성일 조회
3218 Mitsubishi Triton 4X2 Ute (Gas+Petrol)-urgent sale [1] 상크미키키 2017-11-24 322
3217 2005년식 포드 테리토리판매합니디 앵선생 2017-11-22 318
3216 2006 Toyota Yaris 시드니G 2017-11-21 503
3215 Bmwx3 2007년 판매합니다 [3] 블라인드문의 2017-11-19 647
3214 일반 2009년 proton s16 중소형차 스틱(메뉴얼) 팝니다 D.Cland 2017-11-19 282
3213 2012 도요타 야리스 해치백 1.3 수동 큐티폭스 2017-11-18 479
3212 2007년 도요타 코롤라해치 실버색상 자유영혼 2017-11-16 497
3211 도요타 프리우스2007년식 팝니다 줴이미 2017-11-15 500
3210 04 혼다 어코트 3200불 급급매 김김김김씨 2017-11-14 441
3209 2001Nissan X-trail auto (rwc포함4300)판매 [3] 오니기리와 2017-11-13 341
3208 2001Nissan X-trail auto (rwc포함4300)판매 [1] 오니기리와 2017-11-13 480
3207 *귀국세일 Holden Malibu(가격인하)*| 대구물개 2017-11-13 626
3206 2007년 폭스바겐 골프 GTi 14만 키로 팝니다. 흰두루 2017-11-13 553
3205 토요타 캠리 09 ateva 뽐뿌뽐뿌 2017-11-12 420
3204 04혼다 어코드 4000불 김김김김씨 2017-11-11 315
3203 Bmwx3 팝니다 [1] 블라인드문의 2017-11-09 513
3202 차량판매 tonney 2017-11-09 426
3201 Holden ASTRA 2007 Auto AH CD My07.5 $5500 True 2017-11-09 279
3200 2003 HONDA CIVIC 혼다시빅 판매합니다. JIN9293 2017-11-08 379
3199    2003 HONDA CIVIC 혼다시빅 판매합니다. JIN9293 2017-11-08 503
3198 도요타 캠리 2001년식 rwc,레지1년 [2] sohee8930 2017-11-08 351
3197 니산 마이크라 2008 년식 팔아요 $5500 핫바일인분 2017-11-06 414
3196 *귀국세일 차량판매 Holden Malibu* [1] 호주물개 2017-11-06 478
3195 <가격인하>기아2007마젠티스 4100 [2] ndsukr 2017-11-06 336
3194 도요타 아발론 2005년식 22만키로 팝니다 멜번좋아좋아 2017-11-05 457
3193 04년 혼다 어코드 세련된 디자인 저렴한 가격 김김김김씨 2017-11-04 323
3192 2007년 혼다 어코드(Black) 판매합니다. (125000 Km) P.kinetic 2017-11-03 411
3191 도요타 아발론 2005년식 22만키로 팝니다 나는마징가z 2017-11-03 392
3190 일반 2008 (MY09) BMW 325i 팝니다 evenflow 2017-11-01 503
3189 2013 크라이슬러 300 [1] 닐리리아22 2017-10-31 531
12345678910,,,116